Location:  
MeteoStar


Sort by weather type Sort by elevation Sort by visibility Sort from west to east north Sort from north to south Alphabetically Sort from strongest wind speed Sort from lowest to highest pressure Sort from highest to lowest dew point temperature Sort coolest temperatures to warmest Sort warm temperatures to coolest
 Metric

Current Observations for United Kingdom sorted from coolest to warmest

Tulloch Bridge03:00ZNot Avail.32 31251008.0CALM32777
Cairngorm03:00ZNot Avail.32 3117NNW 19 Gusting to 27 204084
Great Dun Fell03:00ZNot Avail.34 3430NNE 30 Gusting to 37 202778
Castlederg03:00ZNot Avail.34 34251008W 3 34167
Machrihanish03:00ZNot Avail.35 33251006.0E 2 3542
Cairnwell03:00ZNot Avail.35 3517N 20 Gusting to 32 243061
Prestwick Rnas03:00ZNot Avail.35 33401005.5NNE 2 3585
Belfast / Aldergrove Airport02:50ZClear36 34161006.3CALM36265
Prestwick Airport02:50ZClear36 34301006.1CALM3665
Drumalbin03:00ZNot Avail.36 34351005.4NNE 3 36803
Sennybridge03:00ZShowers nearby36 36251002.2WNW 1 361007
Glasgow Airport02:50ZClear37 34301005.1WSW 5 3326
Strathallan03:00ZNot Avail.37 36251005.4WSW 4 34114
Baltasound03:00ZNot Avail.38 35201004.7WNW 5 3449
Trawscoed03:00ZNot Avail.39 38251002.2S 1 39206
Lerwick03:00ZMostly Cloudy40 37251005.0NNW 5 36269
Aviemore03:00ZNot Avail.40 39171006.2SW 1 40721
Glen Ogle03:00ZNot Avail.40 3425NNW 11 331850
Carlisle03:00ZNot Avail.40 39201003.4N 4091
Shap03:00ZNot Avail.40 39201002.5NNW 8 35816
Belfast / Harbour02:50ZPartly Cloudy41 39161006.1CALM4116
Farnborough02:50ZClear41 3919996.2W 6 37213
Spadeadam02:50ZRain41 39201001.6N 14 331066
Odiham02:50ZClear41 4114996.3WNW 7 36403
Loch Glascanoch03:00ZClear41 40251007.2W 4 38869
Altnaharra03:00ZClear41 4021006.7WSW 1 41265
Dundrennan03:00ZNot Avail.41 37251004NNW 6 37374
Eskdalemuir03:00ZNot Avail.41 37301004.0N 12 34793
Spadeadam03:00ZShowers41 4071002.7N 14 33935
Warcop Range03:00ZNot Avail.41 38301001.5NNW 8 36744
High Wicombe Hqstc03:00ZMist41 413996.9NW 5 38669
Ballypatrick Forest03:00ZNot Avail.41 40301007W 4 38511
Lyneham03:00ZNot Avail.42 4130998.5NW 7 38475
West Freugh03:00ZNot Avail.42 38301005.4NNW 5 3936
Aboyne03:00ZRain/Drizzle42 42101004.9WSW 4 40459
Redesdale03:00ZNot Avail.42 401.121003.0N 10 36692
Pershore03:00ZNot Avail.42 419999.0NW 8 37104
Little Rissington03:00ZNot Avail.42 424997.7NW 14 35705
Larkhill03:00ZNot Avail.42 4020998.2NW 7 38433
Lough Fea03:00ZNot Avail.42 38301007.5NW 7 38738
Portglenone03:00ZClear42 39251006.4NNE 3 42209
Boscombe Down02:50ZClear43 4125997.3NW 13 36406
Cardiff-Wales Airport02:50ZClear43 39301000.2NW 9 38219
Bristol / Lulsgate 02:50ZClear43 3930999.3NW 5 40620
Newcastle 02:50ZClear43 39201000.2NNW 10 37265
Sumburgh Cape 02:50ZClear43 36401005.1NNW 5 4016
Wick02:50ZClear43 41251005.2WNW 9 38127
Inverness / Dalcross02:50ZMostly Cloudy43 41301006.1SW 3 4329
Edinburgh Airport02:50ZClear43 37301004.2N 2 43134
Benson02:50ZNot Avail.43 434996.2NW 5 40206
Brize Norton02:50ZClear43 419997.2NW 9 38288
Middle Wallop02:50ZHaze43 411.5997.2NW 9 38298
Keswick03:00ZNot Avail.43 38251003.2N 6 39265
Bingley03:00ZNot Avail.43 3920999.9NW 13 36859
Dunkeswell Aerodrome03:00ZNot Avail.43 41251000.2NW 8 38826
Glenanne03:00ZNot Avail.43 38301006.5NW 11 37528
Bournemouth Airport03:00ZNot Avail.44 4225998.0NW 8 3936
Fairford Royal Air Force Base02:56ZClear44 4225998NW 9 39285
Fair Isle03:00ZNot Avail.44 39201005NNE 7 40187
Inverbervie03:00ZNot Avail.44 40301003.7NNW 12 38439
Lake Vyrnwy03:00ZNot Avail.44 41301001.2N 15 Gusting to 27 371181
Liscombe03:00ZNot Avail.44 42251000.5NNW 7 401141
Kenley03:00ZNot Avail.44 4225995.5NW 4 42557
Birmingham / Airport02:50ZClear45 4116998.2NW 11 39324
Yeovilton02:50ZCloudy45 4330999.1W 7 4175
Luton Airport 02:50ZMostly Cloudy45 435995.2NW 12 39524
London / Heathrow Airport02:50ZClear45 4330996.1NW 6 4278
Southend-On-Sea 02:50ZNot Avail.45 4530994.1WNW 6 4249
Kirkwall Airport02:50ZClear45 43401005.1NNW 3 4568
Aberdeen / Dyce02:50ZMostly Cloudy45 41301004.2NNW 9 40213
Tain Range03:00ZNot Avail.45 42251006WNW 8 4113
Kinloss02:50ZMostly Cloudy45 43191005.1WSW 5 4222
Northolt02:50ZClear45 4317995.2NNW 11 39124
Leeming02:50ZClear45 4118999.2NNW 14 39131
Topcliffe Royal Air Force Base 02:50ZPartly Cloudy45 414998.1NNW 12 3991
Charterhall03:00ZLight Showers45 41251002.7NNW 6 42367
Shobdon03:00ZNot Avail.45 42151000.0NW 5 42324
Church Lawford03:00ZNot Avail.45 4325997.0NW 9 40351
Shoeburyness03:00ZNot Avail.45 4410994NW 9 406
Manchester Airport02:50ZClear46 39161000.2NNW 10 41226
Shoreham Airport03:00ZNot Avail.46 446995.2NNW 9 416
London / Gatwick Airport02:50ZNot Avail.46 436995.2NW 10 41203
Walney Island03:00ZNot Avail.46 40251002.2N 6 4349
Isle Of Man / Ronaldsway Airport02:50ZNot Avail.46 39201004.1N 4 4455
East Midlands02:50ZPartly Cloudy46 4320997.2NW 10 41308
Shawbury02:50ZPartly Cloudy46 43201000.2NW 12 40249
Benbecula02:50ZLight Rain46 45301008.1N 17 3919
Stornoway02:50ZLight Rain46 4541008.1NNW 12 4029
Leuchars02:50ZPartly Cloudy46 41251004.1WNW 6 4339
Stansted Airport02:50ZMostly Cloudy46 434994.2NW 9 41347
Manston03:00ZNot Avail.46 4430993.5WSW 8 42180
Wattisham02:50ZPartly Cloudy46 4625993.2NW 9 41285
Linton-On-Ouse02:50ZClear46 4320998.1NNW 14 4052
Waddington02:50ZRain46 464995.2NNW 15 40223
Marham02:50ZRain46 463993.1NW 9 4175
Aultbea03:00ZNot Avail.46 44301007.2ENE 2 4636
Saint Bees Head03:00ZNot Avail.46 40161003.2N 16 Gusting to 29 39406
Fylingdales03:00ZNot Avail.46 4220N 22 Gusting to 33 38859
Mumbles03:00ZNot Avail.46 43351001.7WNW 8 42114
Saint Catherines Point03:00ZNot Avail.46 4220996.7NW 14 4052
Thorney Island03:00ZNot Avail.46 4230996.0NW 7 4213
Holbeach03:00ZLight Rain47 458994.0NW 12 429
Wainfleet03:00ZNot Avail.47 460.87993.7WNW 11 429
Nottingham Weather Centre03:00ZNot Avail.47 4325997.4NNW 12 Gusting to 23 42383
Bedford03:00ZClear47 4512995.5NW 11 42278
Herstmonceux03:00ZClear47 4525994.4N 4 45170
Plymouth03:00ZLight Showers48 4671001.5WNW 9 44164
London City Airport02:50ZClear48 436995.1WNW 7 4516
Lydd Airport 02:50ZLight Rain48 4630994.1N 1 489
Blackpool Airport03:00ZNot Avail.48 4030NNE 10 4432
Hawarden03:00ZNot Avail.48 41301001.0NNW 9 4432
Pembrey Sands02:50ZClear48 46401001.1NNW 10 449
Tiree02:50ZClear48 43351007.1N 8 4439
Norwich Weather Centre02:50ZLight Rain48 454992.1WNW 9 4445
Mildenhall Royal Air Force Base03:03ZMostly Cloudy48 4530993.4N 10 Gusting to 17 4432
Coningsby Royal Air Force Base02:52ZShowers48 462.5994.1NW 11 4322
Wittering02:50ZLight Rain48 4613995.2NW 11 43275
Leconfield02:50ZLight Rain48 4620995.1NNW 15 4219
Cranwell02:50ZPartly Cloudy48 468995.2NNW 16 42219
Loftus Samos03:00ZNot Avail.48 4020998N 23 Gusting to 33 40190
Capel Curig03:00ZClear48 4271002.7ENE 14 Gusting to 29 42708
Crosby03:00ZNot Avail.48 41301001.4NNE 13 4326
Aberdaron03:00ZNot Avail.48 41131003.7N 31 Gusting to 41 39311
Weybourne03:00ZRain48 465992NW 21 Gusting to 32 4168
Langdon Bay03:00ZNot Avail.48 4325993.7WNW 9 44383
Cardinham03:00ZLight Showers48 46201001.7NW 20 Gusting to 33 41656
Donna Nook03:00ZNot Avail.49 4712993.5W 5 4726
Milford Haven03:00ZNot Avail.49 45351002.7NNW 15 43144
Humberside02:50ZHeavy Rain50 481.75995.1NNW 18 44101
Valley02:50ZClear50 43201003.1N 14 453
Boulmer02:50ZPartly Cloudy50 41201000.1N 12 4575
Lossiemouth02:50ZClear50 45201005.1NNW 9 4642
Bridlington Mrsc03:00ZNot Avail.50 4820994.9N 19 Gusting to 27 4449
Isle Of Portland03:00ZNot Avail.50 4520998.5NNW 22 Gusting to 33 43173
Aberporth03:00ZClear51 44201001.9N 20 Gusting to 30 45436
Rhyl03:00ZNot Avail.51 40251002.2N 9 48252
Culdrose02:50ZClear52 43251003.2NNW 24 Gusting to 35 46255
Guernsey Airport02:50ZShowers nearby52 4320999.2NW 19 Gusting to 29 46334
Jersey Airport02:50ZLight Showers52 456999.2NW 18 Gusting to 31 47275
Camborne03:00ZMostly Cloudy52 42201004.4NNW 20 Gusting to 35 46285
Chivenor03:00ZClear53 44301001.0N Gusting to 0 5326
Saint Helena Island02:50ZNot Avail.58 56301018.7SE 17 Gusting to 25 581427

Atlantic
Tropical Watch